STARLINK-11262, 62009

Orbit data source: Space-Track

STARLINK-11262, 62009 is a payload satellite owned by SpaceX/Seattle (US) in LEO that was launched on Mon, 18 Nov 2024 UTC via an FALCON 9 launch vehicle from the Air Force Western Test Range (AFWTR). Payload-class satellites include a variety of spacecraft equipped with specific instruments for various scientific and technological missions. These include communications satellites like Starlink; space stations such as the ISS; scientific satellites like the Hubble; Earth observation satellites from companies like Planet Labs, Umbra, and HawkEye 360; GPS; miniature CubeSats for education and research; and military/defense satellites.

Loading next visibility...
Identifier
62009, 2024-213B
Orbit
LEO
Country
Flag of USUS
Related business
Manufacturer
SpaceX/Seattle
Mission
Operational Commercial Communications
Bus & Motor
STARLINK V2MD, Unknown motor
Mass
960 kg wet, ~910 kg dry
Launch date (UTC)
2024-11-18 (1 year ago)
Launch vehicle
FALCON 9
Launch site
Air Force Western Test Range (AFWTR)
Object type
Payload
Rocket body
Debris
Shape & HBR
Box + 2 Pan, 18.1 m
Radar Cross Section
36.964 m², Large (>1 m²)

Expand to show TLE details & history
Last TLE update: 13 hours ago

TLE from 13 hours ago
0 STARLINK-11262
1 62009U 24213B   25346.73206686  .00248402  00000-0  19878-2 0  9992
2 62009  53.1563 110.2196 0001784  49.0848 311.0324 15.69790214 61257
Epoch: 2025-12-12T17:34Z
TLE epoch observation values (Epoch: 2025-12-12T17:34:10.576Z)
Latitude
-0.00005°
Longitude
125.00603°
Altitude
359.623 km
Speed
7.695 km/s
True Right ascension
07h 20m 52s
True Declination
0° 00' 00"
Sunlit
Object was in full shadow at epoch
Visualization orbit readout
Latitude
Unknown
Longitude
Unknown
Altitude
Unknown
Speed
Unknown
Apparent Right ascension
Unknown
Apparent Declination
Unknown
Sunlit
N/A
Visualization observer readout
Local Sidereal Time
05:21:17
Azimuth
Unknown
Elevation
Unknown
Doppler factor
Unknown
Orbital elements
Apogee altitude
360.961 km
Perigee altitude
358.556 km
Semi-major axis
6,737.896 km
Eccentricity
0.00018
Inclination
53.1563°
RAAN
110.2196°
Arg. of periapsis
49.0848°
True anomaly
311.01698°
Mean anomaly
311.0324°
Eccentric anomaly
311.02469°
Mean motion
3.92425 °/min
Orbital period
91.74 mins
BSTAR
0.0019878
Loading maneuver chart data...
Computing Atmospheric mass density...
Loading historical data...
Loading historical data...
Loading historical data...
Loading historical data...
Loading historical data...
Loading historical data...
Loading historical data...

Documentation

Showing up to 5 results
|